Location: ????????
(38.4362°N, 22.8767°E)
Time: 03:24:24
(UTC+00:00)

ISS - Pass Details

Date: 23 April 2024
Orbit: 409 x 414 km, 51.6° (Epoch: 24 May)

Event Time Altitude Azimuth Distance (km) Brightness Sun altitude
Exits shadow 02:43:22 17° 262° (W) 1,104 -2.2 -11.4°
Maximum altitude 02:45:32 41° 326° (NW) 611 -3.0 -11.0°
Drops below altitude 10° 02:48:41 10° 39° (NE) 1,475 0.1 -10.4°
Sets 02:50:51 0° 46° (NE) 2,338 1.6 -10.0°
